BRISAT

Last updated on Tue Oct 15 2024 00:02:40 GMT+0000 (Coordinated Universal Time)

1 41591U 16039A 24288.54979696 -.00000198 00000+0 00000+0 0 9995 2 41591 0.0168 250.1075 0002127 306.3500 175.5764 1.00270410 30481
UTC large
Height (km)
Speed (km/s)
/
Latitude / Longitude
Inclination (degrees)
Orbital Period (minutes)
Azimuth
Elevation
Range (km)
Doppler Factor

Next 0 passes for location: London (51.5072 / 0.1276)

Sorry there are no passes over London.